Вернуться в каталог

RISAT 2B

АктивенНаукаVLEO
NORAD 44233·PAYLOAD·🇮🇳 India

Запущен May 22, 2019 с Satish Dhawan Space Centre

Loading…

Ближайшие Пролёты (ближайшие 24 часа)

TLE

СвежийSource: Space-Track

Эпоха: Sep 14, 2026, 14:35 UTC

1 44233U 19028A   26257.60775590  .00002538  00000-0  20184-3 0  9993
2 44233  36.9967 184.0407 0006662  15.0407 345.0533 15.00876354401275

Отслеживайте RISAT 2B в реальном времени с AllMySat

Download on the App Store